Hourly Data Report for October 29, 2016

All times are specified in Local Standard Time (LST). Add 1 hour to adjust for Daylight Saving Time where and when it is observed.

GRISE FIORD CLIMATE
NUNAVUT

76°25'22.040" N
82°54'08.020" W
44.50 m
2402351
71971
NGC

Download Data

Hourly Data (October 2016)
Hourly Data Report for October 29, 2016
Temp Definition
°C
Dew Point Temp Definition
°C
Rel Hum Definition
%
Wind Dir Definition
10's deg

Wind Spd Definition
km/h
Visibility Definition
km
Stn Press Definition
kPa
Hmdx Definition


Wind Chill Definition


Weather Definition


TIME
00:00 -18.0 -22.7 67 3 6   102.12   -23 LegendNANA
01:00 -17.7 -21.8 70 3 7   102.12   -23 LegendNANA
02:00 -17.8 -22.0 70 4 7   102.09   -23 LegendNANA
03:00 -18.5 -23.7 63 35 4   102.10   -22 LegendNANA
04:00 -16.9 -21.9 65 14 2   102.08   -18 LegendNANA
05:00 -14.9 -21.2 58 3 7   102.07   -20 LegendNANA
06:00 -16.5 -21.1 68 4 7   102.06   -22 LegendNANA
07:00 -15.5 -21.2 61 4 12   102.04   -23 LegendNANA
08:00 -16.3 -21.1 67 10 4   102.02   -19 LegendNANA
09:00 -17.4 -22.6 64 4 6   102.01   -22 LegendNANA
10:00 -17.0 -22.0 65 11 6   102.01   -22 LegendNANA
11:00 -16.7 -21.7 65 3 7   101.95   -22 LegendNANA
12:00 -17.8 -22.3 68 4 6   101.92   -22 LegendNANA
13:00 -16.6 -21.6 65 11 10   101.92   -23 LegendNANA
14:00 -17.7 -22.3 67 11 5   101.92   -22 LegendNANA
15:00 -17.6 -22.7 65 9 2   101.90   -19 LegendNANA
16:00 -17.0 -21.8 66 20 3   101.89   -19 LegendNANA
17:00 -16.7 -21.2 68 19 3   101.89   -19 LegendNANA
18:00 -18.5 -22.8 69 14 3   101.87   -21 LegendNANA
19:00 -17.8 -23.4 62 4 5   101.84   -22 LegendNANA
20:00
21:00 -19.3 -24.6 62 0 1   101.78   -20 LegendNANA
22:00 -17.8 -22.8 65 7 3   101.75   -20 LegendNANA
23:00 -20.2 -24.7 67 7 3   101.71   -23 LegendNANA

Notes on Data Quality.

Legend

  • E = Estimated
  • M = Missing
  • NA = Not Available
  • ‡ = Partner data that is not subject to review by the National Climate Archives
Date modified: